When you browse on this site, cookies collect data to enhance your experience and personalize the content and advertising you see.
Visit our Privacy Policy to learn more. By continuing to use the site, you agree to this use of cookies and data.
  • In France
  • List of Countries
  • For 7 days
  • Water Temperature
  • Weather Map
  • Weather Widgets
  • user-avatar
    Login

    Hourly Weather Kabwe

    Today, 26 August, Monday

    Time Temperature Precipitation Wind Pressure Humidity
    00:00 +17°C° 0 mm 2 mps 664 mmHg 74%
    01:00 +17°C° 0 mm 2 mps 663 mmHg 77%
    02:00 +16°C° 0 mm 2 mps 663 mmHg 80%
    03:00 +16°C° 0 mm 2 mps 663 mmHg 80%
    04:00 +15°C° 0 mm 2 mps 663 mmHg 81%
    05:00 +15°C° 0 mm 2 mps 663 mmHg 81%
    06:00 +17°C° 0 mm 3 mps 664 mmHg 74%
    07:00 +19°C° 0 mm 3 mps 665 mmHg 67%
    08:00 +20°C° 0 mm 4 mps 666 mmHg 61%
    09:00 +23°C° 0 mm 4 mps 666 mmHg 52%
    10:00 +27°C° 0 mm 3 mps 666 mmHg 43%
    11:00 +30°C° 0 mm 3 mps 666 mmHg 35%
    12:00 +31°C° 0 mm 3 mps 666 mmHg 32%
    13:00 +31°C° 0 mm 3 mps 665 mmHg 29%
    14:00 +33°C° 0 mm 3 mps 664 mmHg 27%
    15:00 +31°C° 0 mm 3 mps 664 mmHg 28%
    16:00 +30°C° 0 mm 3 mps 664 mmHg 29%
    17:00 +30°C° 0 mm 3 mps 663 mmHg 30%
    18:00 +28°C° 0 mm 3 mps 663 mmHg 34%
    19:00 +26°C° 0 mm 2 mps 664 mmHg 37%
    20:00 +25°C° 0 mm 2 mps 664 mmHg 40%
    21:00 +24°C° 0 mm 2 mps 664 mmHg 43%
    22:00 +24°C° 0 mm 2 mps 664 mmHg 45%
    23:00 +23°C° 0 mm 2 mps 664 mmHg 48%

    Tomorrow, 27 August, Tuesday

    Time Temperature Precipitation Wind Pressure Humidity
    00:00 +21°C° 0 mm 2 mps 663 mmHg 51%
    01:00 +20°C° 0 mm 2 mps 663 mmHg 54%
    02:00 +20°C° 0 mm 1 mps 663 mmHg 57%
    03:00 +19°C° 0 mm 1 mps 662 mmHg 59%
    04:00 +19°C° 0 mm 1 mps 662 mmHg 62%
    05:00 +18°C° 0 mm 1 mps 662 mmHg 64%
    06:00 +19°C° 0 mm 2 mps 663 mmHg 58%
    07:00 +21°C° 0 mm 2 mps 664 mmHg 52%
    08:00 +24°C° 0 mm 3 mps 665 mmHg 46%
    09:00 +27°C° 0 mm 3 mps 665 mmHg 39%
    10:00 +29°C° 0 mm 3 mps 666 mmHg 32%
    11:00 +33°C° 0 mm 3 mps 666 mmHg 25%
    12:00 +34°C° 0 mm 3 mps 665 mmHg 23%
    13:00 +34°C° 0 mm 3 mps 665 mmHg 22%
    14:00 +35°C° 0 mm 4 mps 664 mmHg 20%
    15:00 +34°C° 0 mm 3 mps 663 mmHg 21%
    16:00 +34°C° 0 mm 3 mps 663 mmHg 22%
    17:00 +33°C° 0 mm 3 mps 663 mmHg 23%
    18:00 +30°C° 0 mm 3 mps 663 mmHg 27%
    19:00 +28°C° 0 mm 3 mps 663 mmHg 30%
    20:00 +26°C° 0 mm 3 mps 663 mmHg 34%
    21:00 +25°C° 0 mm 2 mps 663 mmHg 37%
    22:00 +23°C° 0 mm 2 mps 662 mmHg 40%
    23:00 +21°C° 0 mm 2 mps 662 mmHg 42%

    Day after tomorrow, 28 August, Wednesday

    Time Temperature Precipitation Wind Pressure Humidity
    00:00 +20°C° 0 mm 2 mps 662 mmHg 44%
    01:00 +19°C° 0 mm 2 mps 661 mmHg 46%
    02:00 +19°C° 0 mm 1 mps 661 mmHg 48%
    03:00 +18°C° 0 mm 2 mps 661 mmHg 48%
    04:00 +18°C° 0 mm 2 mps 661 mmHg 49%
    05:00 +17°C° 0 mm 2 mps 661 mmHg 49%
    06:00 +19°C° 0 mm 3 mps 662 mmHg 44%
    07:00 +21°C° 0 mm 3 mps 663 mmHg 38%
    08:00 +23°C° 0 mm 4 mps 664 mmHg 32%
    09:00 +27°C° 0 mm 3 mps 664 mmHg 28%
    10:00 +30°C° 0 mm 3 mps 665 mmHg 23%
    11:00 +34°C° 0 mm 3 mps 665 mmHg 18%
    12:00 +34°C° 0 mm 3 mps 665 mmHg 18%
    13:00 +35°C° 0 mm 4 mps 664 mmHg 17%
    14:00 +35°C° 0 mm 4 mps 663 mmHg 17%
    15:00 +34°C° 0 mm 3 mps 663 mmHg 17%
    16:00 +34°C° 0 mm 3 mps 662 mmHg 18%
    17:00 +33°C° 0 mm 3 mps 662 mmHg 18%
    18:00 +30°C° 0 mm 3 mps 662 mmHg 21%
    19:00 +27°C° 0 mm 3 mps 662 mmHg 25%
    20:00 +25°C° 0 mm 2 mps 662 mmHg 28%
    21:00 +24°C° 0 mm 2 mps 662 mmHg 31%
    22:00 +22°C° 0 mm 3 mps 662 mmHg 34%
    23:00 +21°C° 0 mm 3 mps 662 mmHg 36%

    29 August, Thursday

    Time Temperature Precipitation Wind Pressure Humidity
    00:00 +20°C° 0 mm 3 mps 662 mmHg 36%
    01:00 +20°C° 0 mm 3 mps 661 mmHg 36%
    02:00 +20°C° 0 mm 2 mps 661 mmHg 36%
    03:00 +19°C° 0 mm 2 mps 661 mmHg 37%
    04:00 +19°C° 0 mm 3 mps 661 mmHg 37%
    05:00 +18°C° 0 mm 3 mps 661 mmHg 37%
    06:00 +20°C° 0 mm 3 mps 662 mmHg 34%
    07:00 +22°C° 0 mm 4 mps 663 mmHg 30%
    08:00 +25°C° 0 mm 5 mps 664 mmHg 26%
    09:00 +28°C° 0 mm 5 mps 665 mmHg 22%
    10:00 +30°C° 0 mm 4 mps 665 mmHg 19%
    11:00 +34°C° 0 mm 4 mps 666 mmHg 15%
    12:00 +35°C° 0 mm 4 mps 665 mmHg 15%
    13:00 +35°C° 0 mm 4 mps 664 mmHg 14%
    14:00 +36°C° 0 mm 4 mps 663 mmHg 13%
    15:00 +35°C° 0 mm 4 mps 663 mmHg 14%
    16:00 +34°C° 0 mm 4 mps 662 mmHg 15%
    17:00 +33°C° 0 mm 4 mps 662 mmHg 15%
    18:00 +30°C° 0 mm 4 mps 662 mmHg 19%
    19:00 +27°C° 0 mm 3 mps 662 mmHg 23%
    20:00 +25°C° 0 mm 3 mps 662 mmHg 27%
    21:00 +24°C° 0 mm 3 mps 662 mmHg 29%
    22:00 +22°C° 0 mm 3 mps 662 mmHg 32%
    23:00 +22°C° 0 mm 3 mps 662 mmHg 34%

    30 August, Friday

    Time Temperature Precipitation Wind Pressure Humidity
    00:00 +21°C° 0 mm 3 mps 662 mmHg 36%
    01:00 +20°C° 0 mm 3 mps 661 mmHg 38%
    02:00 +19°C° 0 mm 3 mps 661 mmHg 40%
    03:00 +19°C° 0 mm 3 mps 661 mmHg 41%
    04:00 +19°C° 0 mm 3 mps 661 mmHg 42%
    05:00 +18°C° 0 mm 4 mps 661 mmHg 44%
    06:00 +20°C° 0 mm 4 mps 662 mmHg 41%
    07:00 +22°C° 0 mm 5 mps 663 mmHg 39%
    08:00 +23°C° 0 mm 5 mps 664 mmHg 36%
    09:00 +27°C° 0 mm 5 mps 664 mmHg 30%
    10:00 +30°C° 0 mm 4 mps 664 mmHg 25%
    11:00 +33°C° 0 mm 4 mps 664 mmHg 19%
    12:00 +34°C° 0 mm 4 mps 664 mmHg 17%
    13:00 +35°C° 0 mm 4 mps 663 mmHg 15%
    14:00 +36°C° 0 mm 4 mps 662 mmHg 13%
    15:00 +35°C° 0 mm 4 mps 662 mmHg 14%
    16:00 +34°C° 0 mm 4 mps 661 mmHg 15%
    17:00 +33°C° 0 mm 4 mps 661 mmHg 16%
    18:00 +30°C° 0 mm 4 mps 661 mmHg 20%
    19:00 +27°C° 0 mm 3 mps 661 mmHg 24%
    20:00 +24°C° 0 mm 2 mps 661 mmHg 28%
    21:00 +23°C° 0 mm 2 mps 660 mmHg 32%
    22:00 +21°C° 0 mm 2 mps 660 mmHg 36%
    23:00 +20°C° 0 mm 2 mps 660 mmHg 40%

    31 August, Saturday

    Time Temperature Precipitation Wind Pressure Humidity
    00:00 +19°C° 0 mm 2 mps 660 mmHg 41%
    01:00 +19°C° 0 mm 2 mps 660 mmHg 42%
    02:00 +18°C° 0 mm 2 mps 659 mmHg 44%
    03:00 +18°C° 0 mm 2 mps 659 mmHg 42%
    04:00 +18°C° 0 mm 2 mps 659 mmHg 41%
    05:00 +18°C° 0 mm 2 mps 660 mmHg 39%
    06:00 +19°C° 0 mm 2 mps 660 mmHg 36%
    07:00 +21°C° 0 mm 3 mps 661 mmHg 33%
    08:00 +24°C° 0 mm 3 mps 662 mmHg 30%
    09:00 +27°C° 0 mm 3 mps 662 mmHg 25%
    10:00 +31°C° 0 mm 3 mps 663 mmHg 19%
    11:00 +35°C° 0 mm 3 mps 663 mmHg 14%
    12:00 +36°C° 0 mm 3 mps 663 mmHg 13%
    13:00 +37°C° 0 mm 3 mps 662 mmHg 12%
    14:00 +38°C° 0 mm 4 mps 661 mmHg 10%
    15:00 +37°C° 0 mm 4 mps 661 mmHg 11%
    16:00 +36°C° 0 mm 4 mps 660 mmHg 12%
    17:00 +35°C° 0 mm 3 mps 660 mmHg 12%
    18:00 +31°C° 0 mm 3 mps 660 mmHg 15%
    19:00 +28°C° 0 mm 3 mps 660 mmHg 18%
    20:00 +25°C° 0 mm 2 mps 660 mmHg 21%
    21:00 +24°C° 0 mm 2 mps 660 mmHg 23%
    22:00 +23°C° 0 mm 2 mps 660 mmHg 25%
    23:00 +22°C° 0 mm 1 mps 660 mmHg 27%
    Show more